Regional Weather Roundup
Issued by NWS

Home | Current Version | Previous Version | Text Only | Print | Product List | Glossary On
Versions: 1 2 3 4 5 6 7 8 9 10 11 12 13 14 15 16 17 18 19 20 21 22 23 24 25 26 27 28 29 30 31 32 33 34 35 36 37 38 39 40 41 42 43 44 45 46 47 48 49 50
000
ASUS43 KMKX 300011
RWRWI

WISCONSIN REGIONAL WEATHER ROUNDUP
NATIONAL WEATHER SERVICE MILWAUKEE/SULLIVAN WI
700 PM CDT SAT AUG 29 2015

NOTE: "FAIR" INDICATES FEW OR NO CLOUDS BELOW 12,000 FEET WITH NO
SIGNIFICANT WEATHER AND/OR OBSTRUCTIONS TO VISIBILITY.

WIZ001-002-006>008-014>016-023>028-300100-
NORTHWEST WISCONSIN

CITY           SKY/WX    TMP DP  RH WIND       PRES   REMARKS
SUPERIOR ARPT  MOCLDY    73  65  77 SW6       29.96F
6HR MIN TEMP:  71; 6HR MAX TEMP:  76;

ASHLAND        MOCLDY    72  66  81 S6        29.99S
6HR MIN TEMP:  72; 6HR MAX TEMP:  79;

HAYWARD        MOCLDY    71  63  75 S7        30.03S
6HR MIN TEMP:  71; 6HR MAX TEMP:  74;

SIREN          CLEAR     71  62  73 S6        30.02F
6HR MIN TEMP:  71; 6HR MAX TEMP:  75;

CUMBERLAND     MOCLDY    68  61  77 S3        30.03F
RICE LAKE      MOCLDY    70  63  77 S5        30.04F
6HR MIN TEMP:  69; 6HR MAX TEMP:  74;

CHETEK         MOCLDY   N/A N/A N/A S3        30.04S
LADYSMITH      PTCLDY    69  62  79 S6        30.05F
6HR MIN TEMP:  69; 6HR MAX TEMP:  75;

EAU CLAIRE     MOCLDY    71  61  70 CALM      30.03F
6HR MIN TEMP:  64; 6HR MAX TEMP:  72;

MENOMONIE      MOCLDY    70  63  79 CALM      30.04F
6HR MIN TEMP:  67; 6HR MAX TEMP:  72;

NEW RICHMOND   PTCLDY    68  62  80 CALM      30.03F
6HR MIN TEMP:  66; 6HR MAX TEMP:  73;

OSCEOLA        CLEAR     69  62  78 S3        30.05S
6HR MIN TEMP:  69; 6HR MAX TEMP:  74;

$$

WIZ003>005-009-010-017-018-300100-
NORTH CENTRAL WISCONSIN

CITY           SKY/WX    TMP DP  RH WIND       PRES   REMARKS
MANITOWISH WTR MOCLDY    69  65  85 CALM      30.03S
6HR MIN TEMP:  69; 6HR MAX TEMP:  76;

ARBOR VITAE    MOCLDY    72  64  76 S6        30.03F
6HR MIN TEMP:  72; 6HR MAX TEMP:  77;

WOODRUFF       MOCLDY    72  64  76 S6        30.03F
6HR MIN TEMP:  72; 6HR MAX TEMP:  77;

RHINELANDER    CLEAR     70  60  70 SW6       30.05S
6HR MIN TEMP:  68; 6HR MAX TEMP:  75;

EAGLE RIVER    CLEAR     69  58  66 SW3       30.03S
6HR MIN TEMP:  69; 6HR MAX TEMP:  76;

LAND O LAKES   PTCLDY    71  60  68 CALM      30.04S
6HR MIN TEMP:  71; 6HR MAX TEMP:  79;

PHILLIPS       CLEAR     70  63  78 SW6       30.03S
6HR MIN TEMP:  70; 6HR MAX TEMP:  75;

TOMAHAWK       CLEAR     66  61  82 CALM      30.05S
6HR MIN TEMP:  65; 6HR MAX TEMP:  73;

MEDFORD        PTCLDY    65  61  88 S3        30.05F
6HR MIN TEMP:  64; 6HR MAX TEMP:  70;

MERRILL        CLEAR     67  62  83 SW6       30.06S
6HR MIN TEMP:  65; 6HR MAX TEMP:  71;

$$

WIZ029-030-035-036-043>047-300100-
CENTRAL WISCONSIN

CITY           SKY/WX    TMP DP  RH WIND       PRES   REMARKS
WAUSAU         CLOUDY    66  60  81 SW5       30.04S
6HR MIN TEMP:  64; 6HR MAX TEMP:  68;

MOSINEE        CLOUDY    64  61  88 S5        30.07S
MARSHFIELD     CLOUDY    66  57  72 CALM      30.06S
6HR MIN TEMP:  65; 6HR MAX TEMP:  67;

STEVENS POINT  CLOUDY    63  58  85 CALM      30.06S
6HR MIN TEMP:  62; 6HR MAX TEMP:  63;

WAUPACA        CLOUDY    68  63  82 CALM      30.04F
6HR MIN TEMP:  67; 6HR MAX TEMP:  70; 6HR PCP:  0.04;

WAUTOMA        CLOUDY    68  63  84 CALM      30.04F
6HR MIN TEMP:  66; 6HR MAX TEMP:  70;

WISC RAPIDS    CLOUDY    67  59  75 E5        30.06
6HR MIN TEMP:  67; 6HR MAX TEMP:  69;

CAMP DOUGLAS   CLOUDY    68  68 100 S2        30.04S
6HR MIN TEMP:  67; 6HR MAX TEMP:  69;

$$

WIZ011>013-019>022-031-037>040-048>050-300100-
NORTHEAST WISCONSIN

CITY           SKY/WX    TMP DP  RH WIND       PRES   REMARKS
ANTIGO         CLEAR     64  60  86 SW6       30.06R
SHAWANO        PTCLDY    68  62  80 CALM      30.04F
6HR MIN TEMP:  67; 6HR MAX TEMP:  73;

OCONTO         CLEAR     68  66  94 CALM      30.02F
6HR MIN TEMP:  65; 6HR MAX TEMP:  70;

STURGEON BAY   PTCLDY    64  59  82 S5        30.06F
6HR MIN TEMP:  64; 6HR MAX TEMP:  68;

GREEN BAY      CLOUDY    68  62  81 NE5       30.03F
6HR MIN TEMP:  67; 6HR MAX TEMP:  72;

MANITOWOC      CLEAR     63  60  90 MISG      30.05S
6HR MIN TEMP:  63; 6HR MAX TEMP:  68;

APPLETON       CLOUDY    68  61  77 VRB3      30.02F
CLINTONVILLE   CLOUDY    68  61  77 NW3       30.04S
OSHKOSH        CLOUDY    69  61  75 CALM      30.03S
6HR MIN TEMP:  65; 6HR MAX TEMP:  71;

$$

WIZ032>034-041-042-053>061-300100-
SOUTHWEST WISCONSIN

CITY           SKY/WX    TMP DP  RH WIND       PRES   REMARKS
LA CROSSE      CLOUDY    70  61  73 E3        30.03F
6HR MIN TEMP:  68; 6HR MAX TEMP:  75;

SPARTA         CLOUDY    69  60  73 CALM      30.05S
6HR MIN TEMP:  67; 6HR MAX TEMP:  70;

VIROQUA          N/A     67  64  90 NE3       30.06R
6HR MIN TEMP:  67; 6HR MAX TEMP:  72;

BOSCOBEL       CLOUDY    71  64  78 CALM      30.03S
6HR MIN TEMP:  70; 6HR MAX TEMP:  72;

PRAIRIE DU CHI CLOUDY    69  60  74 E5        30.03S
6HR MIN TEMP:  69; 6HR MAX TEMP:  71;

PLATTEVILLE    CLOUDY    69  65  87 NE3       30.03S
6HR MIN TEMP:  68; 6HR MAX TEMP:  71;

$$

WIZ056-057-062-063-064-067-068-300100-
SOUTH CENTRAL WISCONSIN

CITY           SKY/WX    TMP DP  RH WIND       PRES   REMARKS
REEDSBURG      CLOUDY    67  62  83 NE3       30.04S
6HR MIN TEMP:  66; 6HR MAX TEMP:  69;

BARABOO/DELLS  CLOUDY    67  61  80 NE3       30.04S
6HR MIN TEMP:  65; 6HR MAX TEMP:  69;

LONE ROCK      CLOUDY    69  63  81 N7        30.03F
6HR MIN TEMP:  68; 6HR MAX TEMP:  72;

MINERAL POINT  CLOUDY    70  63  78 CALM      30.04S
MADISON        CLOUDY    67  63  87 CALM      30.03S
6HR MIN TEMP:  67; 6HR MAX TEMP:  69;

MIDDLETON      CLOUDY    68  66  93 CALM      30.04S
6HR MIN TEMP:  67; 6HR MAX TEMP:  71;

WATERTOWN      CLOUDY    65  65 100 E3        30.03S
6HR MIN TEMP:  64; 6HR MAX TEMP:  67;

MONROE         CLOUDY    64  63  94 N6        30.03S
JANESVILLE     LGT RAIN  68  66  94 N5        30.02R FOG
$$

WIZ051-052-058>065-066-070>072-300100-
SOUTHEAST WISCONSIN

CITY           SKY/WX    TMP DP  RH WIND       PRES   REMARKS
MILWAUKEE      DRZL/FOG  62  61  96 N7        30.03R VSB 1/2
6HR MIN TEMP:  59; 6HR MAX TEMP:  64; 6HR PCP: TRACE;

WAUKESHA       CLOUDY    61  61 100 N3        30.05S FOG
MILWAUKEE/TIMM CLOUDY    63  59  88 N5        30.05R FOG
RACINE         LGT RAIN  62  59  90 N7        30.04S VSB 1
6HR MIN TEMP:  61; 6HR MAX TEMP:  65; 6HR PCP: TRACE;

BURLINGTON     CLOUDY    62  61  98 NE3       30.03S FOG
6HR MIN TEMP:  62; 6HR MAX TEMP:  67;

KENOSHA        CLOUDY    64  62  93 N5        30.02S FOG
6HR MIN TEMP:  64; 6HR MAX TEMP:  68;

FOND DU LAC    CLOUDY    68  62  81 E3        30.03F
6HR MIN TEMP:  66; 6HR MAX TEMP:  72;

SHEBOYGAN      CLOUDY    65  61  87 SE3       30.04F
6HR MIN TEMP:  64; 6HR MAX TEMP:  68;

WEST BEND      CLOUDY    63  59  88 CALM      30.05S
JUNEAU         CLOUDY    66  62  86 CALM      30.04F
6HR MIN TEMP:  64; 6HR MAX TEMP:  69; 6HR PCP:  0.03;

$$

LSZ147-162-300100-
LAKE SUPERIOR

STATION/POSITION TIME  TEMP    WIND        PRES    WAVE
                       AIR SEA DIR/SP/G            HT/PER
                 (UTC) (F)     (DEG/KT/KT) (MB)    (FT/S)
W MID LAKE BUOY  2350   59 55  220/  6/  6 1014.6F   1/ 4
DEVILS ISLAND    0000   68     210/  8/  9 1014.7F
PORT WING        2340   68      CALM  /  3 1014.9F
SAXON HARBOR     2340   70        CALM     1014.6F
$$

LMZ867-665-643>646-300100-
LAKE MICHIGAN

STATION/POSITION TIME  TEMP    WIND        PRES    WAVE
                       AIR SEA DIR/SP/G            HT/PER



USA.gov is the U.S. government's official web portal to all federal, state and local government web resources and services.